| time (UTC) | temp F | wind direction | speed MPH | gust MPH | rain 1hr in | rain 24hr in | rain mn in | humidity % | barometer mb |
| 20260507134456 | 71 | 342 | 1.0 | 5.0 | 0.00 | 0.00 | 0.00 | 75 | 1016.8 |
| 20260507133952 | 71 | 339 | 2.0 | 2.0 | 0.00 | 0.00 | 0.00 | 74 | 1016.8 |
| 20260507133448 | 72 | 334 | 2.0 | 5.0 | 0.00 | 0.00 | 0.00 | 74 | 1016.8 |
| 20260507132947 | 72 | 332 | 2.0 | 3.0 | 0.00 | 0.00 | 0.00 | 74 | 1016.8 |
| 20260507132442 | 72 | 350 | 3.0 | 4.0 | 0.00 | 0.00 | 0.00 | 74 | 1016.9 |
| 20260507131939 | 72 | 359 | 2.0 | 4.0 | 0.00 | 0.00 | 0.00 | 75 | 1017.1 |
| 20260507131436 | 72 | 343 | 2.0 | 5.0 | 0.00 | 0.00 | 0.00 | 75 | 1016.9 |
| 20260507130933 | 71 | 330 | 2.0 | 4.0 | 0.00 | 0.00 | 0.00 | 75 | 1016.9 |
| 20260507130431 | 71 | 11 | 2.0 | 5.0 | 0.00 | 0.00 | 0.00 | 76 | 1016.9 |
| 20260507125929 | 71 | 333 | 3.0 | 4.0 | 0.00 | 0.00 | 0.00 | 76 | 1017.2 |
| 20260507125426 | 71 | 334 | 3.0 | 5.0 | 0.00 | 0.00 | 0.00 | 76 | 1017.1 |
| 20260507124924 | 71 | 316 | 4.0 | 6.0 | 0.00 | 0.00 | 0.00 | 76 | 1017.2 |
| 20260507124419 | 71 | 343 | 2.0 | 3.0 | 0.00 | 0.00 | 0.00 | 76 | 1017.1 |
| 20260507123918 | 71 | 325 | 2.0 | 4.0 | 0.00 | 0.00 | 0.00 | 76 | 1017.4 |
| 20260507123415 | 71 | 357 | 0.0 | 3.0 | 0.00 | 0.00 | 0.00 | 76 | 1017.3 |
| 20260507122912 | 71 | 329 | 4.0 | 6.0 | 0.00 | 0.00 | 0.00 | 76 | 1017.3 |
| 20260507122407 | 71 | 324 | 2.0 | 3.0 | 0.00 | 0.00 | 0.00 | 77 | 1017.3 |
| 20260507121903 | 71 | 315 | 3.0 | 4.0 | 0.00 | 0.00 | 0.00 | 76 | 1017.4 |
| 20260507121359 | 71 | 286 | 4.0 | 9.0 | 0.00 | 0.00 | 0.00 | 76 | 1017.5 |
| 20260507120855 | 71 | 333 | 4.0 | 5.0 | 0.00 | 0.00 | 0.00 | 77 | 1017.3 |
| 20260507120352 | 71 | 1 | 2.0 | 4.0 | 0.00 | 0.00 | 0.00 | 77 | 1017.5 |
| 20260507115848 | 71 | 335 | 2.0 | 4.0 | 0.00 | 0.00 | 0.00 | 76 | 1017.4 |
| 20260507115344 | 71 | 341 | 5.0 | 6.0 | 0.00 | 0.00 | 0.00 | 77 | 1017.7 |
| 20260507114840 | 71 | 328 | 3.0 | 5.0 | 0.00 | 0.00 | 0.00 | 77 | 1017.8 |
| 20260507114337 | 71 | 298 | 3.0 | 6.0 | 0.00 | 0.00 | 0.00 | 76 | 1017.9 |
| 20260507113834 | 71 | 322 | 3.0 | 8.0 | 0.00 | 0.00 | 0.00 | 77 | 1017.8 |
| 20260507113332 | 71 | 326 | 2.0 | 7.0 | 0.00 | 0.00 | 0.00 | 78 | 1017.9 |
| 20260507112829 | 71 | 306 | 4.0 | 6.0 | 0.00 | 0.00 | 0.00 | 79 | 1017.9 |
| 20260507112326 | 71 | 323 | 4.0 | 6.0 | 0.00 | 0.00 | 0.00 | 79 | 1018.1 |
| 20260507111824 | 71 | 323 | 9.0 | 9.0 | 0.00 | 0.00 | 0.00 | 79 | 1018.0 |
| 20260507111320 | 71 | 309 | 4.0 | 9.0 | 0.00 | 0.00 | 0.00 | 79 | 1018.0 |
| 20260507110816 | 71 | 303 | 2.0 | 5.0 | 0.00 | 0.00 | 0.00 | 79 | 1017.9 |
| 20260507110313 | 71 | 348 | 4.0 | 7.0 | 0.00 | 0.00 | 0.00 | 78 | 1018.1 |
| 20260507105810 | 71 | 314 | 3.0 | 6.0 | 0.00 | 0.00 | 0.00 | 78 | 1018.0 |
| 20260507105307 | 71 | 323 | 6.0 | 6.0 | 0.00 | 0.00 | 0.00 | 78 | 1018.1 |
| 20260507104803 | 71 | 313 | 2.0 | 10.0 | 0.00 | 0.00 | 0.00 | 79 | 1018.3 |
| 20260507104259 | 71 | 319 | 3.0 | 8.0 | 0.00 | 0.00 | 0.00 | 79 | 1018.1 |
| 20260507103756 | 71 | 26 | 4.0 | 6.0 | 0.00 | 0.00 | 0.00 | 79 | 1018.2 |
| 20260507103252 | 71 | 334 | 3.0 | 5.0 | 0.00 | 0.00 | 0.00 | 79 | 1018.3 |
| 20260507102749 | 71 | 340 | 2.0 | 9.0 | 0.00 | 0.00 | 0.00 | 78 | 1018.2 |
| 20260507102245 | 71 | 62 | 1.0 | 5.0 | 0.00 | 0.00 | 0.00 | 77 | 1018.1 |
| 20260507101741 | 71 | 303 | 4.0 | 11.0 | 0.00 | 0.00 | 0.00 | 76 | 1018.4 |
| 20260507101236 | 71 | 316 | 3.0 | 6.0 | 0.00 | 0.00 | 0.00 | 75 | 1018.4 |
| 20260507100734 | 71 | 290 | 3.0 | 5.0 | 0.00 | 0.00 | 0.00 | 76 | 1018.3 |
| 20260507100232 | 71 | 344 | 3.0 | 7.0 | 0.00 | 0.00 | 0.00 | 76 | 1018.6 |
| 20260507095730 | 71 | 300 | 4.0 | 9.0 | 0.00 | 0.00 | 0.00 | 76 | 1018.5 |
| 20260507095226 | 71 | 315 | 8.0 | 9.0 | 0.00 | 0.00 | 0.00 | 76 | 1018.4 |
| 20260507094723 | 71 | 316 | 6.0 | 11.0 | 0.00 | 0.00 | 0.00 | 74 | 1018.4 |
| 20260507094220 | 71 | 81 | 3.0 | 11.0 | 0.00 | 0.00 | 0.00 | 72 | 1018.4 |
| 20260507093717 | 71 | 313 | 5.0 | 6.0 | 0.00 | 0.00 | 0.00 | 74 | 1018.4 |
| 20260507093216 | 71 | 297 | 5.0 | 6.0 | 0.00 | 0.00 | 0.00 | 75 | 1018.5 |
| 20260507092713 | 71 | 303 | 3.0 | 6.0 | 0.00 | 0.00 | 0.00 | 75 | 1018.4 |
| 20260507092209 | 71 | 321 | 3.0 | 11.0 | 0.00 | 0.00 | 0.00 | 74 | 1018.9 |
| 20260507091705 | 71 | 339 | 2.0 | 9.0 | 0.00 | 0.00 | 0.00 | 73 | 1018.8 |
| 20260507091202 | 71 | 329 | 6.0 | 10.0 | 0.00 | 0.00 | 0.00 | 74 | 1018.8 |
| 20260507090657 | 71 | 313 | 3.0 | 7.0 | 0.00 | 0.00 | 0.00 | 75 | 1018.7 |
| 20260507090154 | 71 | 277 | 3.0 | 6.0 | 0.00 | 0.00 | 0.00 | 75 | 1018.7 |
| 20260507085651 | 71 | 300 | 6.0 | 8.0 | 0.00 | 0.00 | 0.00 | 75 | 1018.9 |
| 20260507085148 | 71 | 336 | 4.0 | 9.0 | 0.00 | 0.00 | 0.00 | 73 | 1018.8 |
| 20260507084645 | 71 | 337 | 6.0 | 8.0 | 0.00 | 0.00 | 0.00 | 73 | 1018.9 |
| 20260507084142 | 71 | 312 | 5.0 | 6.0 | 0.00 | 0.00 | 0.00 | 74 | 1018.9 |
| 20260507083638 | 71 | 315 | 5.0 | 11.0 | 0.00 | 0.00 | 0.00 | 75 | 1018.8 |
| 20260507083135 | 71 | 320 | 4.0 | 7.0 | 0.00 | 0.00 | 0.00 | 75 | 1018.7 |
| 20260507082631 | 71 | 333 | 3.0 | 9.0 | 0.00 | 0.00 | 0.00 | 76 | 1018.9 |
| 20260507082128 | 71 | 289 | 2.0 | 6.0 | 0.00 | 0.00 | 0.00 | 77 | 1018.7 |
| 20260507081625 | 71 | 281 | 3.0 | 8.0 | 0.00 | 0.00 | 0.00 | 76 | 1018.5 |
| 20260507081121 | 71 | 316 | 2.0 | 5.0 | 0.00 | 0.00 | 0.00 | 77 | 1018.7 |
| 20260507080617 | 71 | 307 | 4.0 | 7.0 | 0.00 | 0.00 | 0.00 | 77 | 1018.6 |
| 20260507080114 | 71 | 309 | 8.0 | 9.0 | 0.00 | 0.00 | 0.00 | 77 | 1018.5 |
| 20260507075614 | 71 | 335 | 6.0 | 7.0 | 0.00 | 0.00 | 0.00 | 77 | 1018.7 |
| 20260507075111 | 71 | 300 | 7.0 | 10.0 | 0.00 | 0.00 | 0.00 | 78 | 1018.8 |
| 20260507074608 | 71 | 314 | 9.0 | 11.0 | 0.00 | 0.00 | 0.00 | 78 | 1018.6 |
| 20260507074106 | 71 | 305 | 2.0 | 9.0 | 0.00 | 0.00 | 0.00 | 78 | 1018.6 |
| 20260507073602 | 71 | 346 | 4.0 | 9.0 | 0.00 | 0.00 | 0.00 | 79 | 1018.4 |
| 20260507073058 | 71 | 327 | 5.0 | 6.0 | 0.00 | 0.00 | 0.00 | 79 | 1018.4 |
| 20260507072556 | 71 | 308 | 6.0 | 9.0 | 0.00 | 0.00 | 0.00 | 80 | 1018.4 |
| 20260507072053 | 71 | 285 | 3.0 | 4.0 | 0.00 | 0.00 | 0.00 | 79 | 1018.4 |
| 20260507071550 | 71 | 329 | 2.0 | 7.0 | 0.00 | 0.00 | 0.00 | 79 | 1018.6 |
| 20260507071047 | 71 | 320 | 3.0 | 6.0 | 0.00 | 0.00 | 0.00 | 79 | 1018.4 |
| 20260507070544 | 71 | 326 | 4.0 | 12.0 | 0.00 | 0.00 | 0.00 | 79 | 1018.2 |
| 20260507070041 | 71 | 316 | 3.0 | 7.0 | 0.00 | 0.00 | 0.00 | 80 | 1018.2 |
| 20260507065537 | 71 | 328 | 5.0 | 6.0 | 0.00 | 0.00 | 0.00 | 79 | 1018.2 |
| 20260507065034 | 71 | 329 | 2.0 | 7.0 | 0.00 | 0.00 | 0.00 | 79 | 1018.3 |
| 20260507064532 | 71 | 309 | 6.0 | 10.0 | 0.00 | 0.00 | 0.00 | 78 | 1017.9 |
| 20260507064031 | 71 | 288 | 3.0 | 6.0 | 0.00 | 0.00 | 0.00 | 80 | 1017.9 |
| 20260507063527 | 71 | 285 | 2.0 | 7.0 | 0.00 | 0.00 | 0.00 | 80 | 1018.0 |
| 20260507063025 | 72 | 309 | 8.0 | 9.0 | 0.00 | 0.00 | 0.00 | 79 | 1017.8 |
| 20260507062521 | 72 | 301 | 3.0 | 6.0 | 0.00 | 0.00 | 0.00 | 78 | 1017.7 |
| 20260507062019 | 71 | 329 | 3.0 | 6.0 | 0.00 | 0.00 | 0.00 | 80 | 1017.5 |
| 20260507061516 | 72 | 316 | 2.0 | 7.0 | 0.00 | 0.00 | 0.00 | 80 | 1017.4 |
| 20260507061014 | 71 | 315 | 4.0 | 11.0 | 0.00 | 0.00 | 0.00 | 79 | 1017.5 |
| 20260507060512 | 71 | 338 | 5.0 | 6.0 | 0.00 | 0.00 | 0.00 | 79 | 1017.4 |
| 20260507060008 | 71 | 304 | 6.0 | 14.0 | 0.00 | 0.00 | 0.00 | 79 | 1017.4 |
| 20260507055503 | 72 | 302 | 4.0 | 10.0 | 0.00 | 0.00 | 0.00 | 78 | 1017.1 |
| 20260507055000 | 72 | 319 | 4.0 | 12.0 | 0.00 | 0.00 | 0.00 | 79 | 1017.1 |
| 20260507054456 | 72 | 316 | 4.0 | 10.0 | 0.00 | 0.00 | 0.00 | 79 | 1017.2 |
| 20260507053953 | 72 | 319 | 3.0 | 7.0 | 0.00 | 0.00 | 0.00 | 79 | 1017.1 |
| 20260507053451 | 72 | 303 | 4.0 | 10.0 | 0.00 | 0.00 | 0.00 | 79 | 1017.0 |
| 20260507052949 | 72 | 328 | 4.0 | 5.0 | 0.00 | 0.00 | 0.00 | 79 | 1017.1 |
| 20260507052447 | 72 | 314 | 4.0 | 6.0 | 0.00 | 0.00 | 0.00 | 80 | 1017.1 |
| 20260507051943 | 72 | 323 | 7.0 | 8.0 | 0.00 | 0.00 | 0.00 | 79 | 1016.7 |
| 20260507051441 | 72 | 307 | 5.0 | 7.0 | 0.00 | 0.00 | 0.00 | 79 | 1016.9 |
| 20260507050938 | 72 | 313 | 3.0 | 7.0 | 0.00 | 0.00 | 0.00 | 79 | 1016.8 |
| 20260507050434 | 72 | 40 | 4.0 | 7.0 | 0.00 | 0.00 | 0.00 | 79 | 1016.8 |
| 20260507045931 | 72 | 332 | 3.0 | 9.0 | 0.00 | 0.00 | 0.00 | 79 | 1016.8 |
| 20260507045428 | 71 | 322 | 4.0 | 9.0 | 0.00 | 0.00 | 0.00 | 79 | 1016.6 |
| 20260507044925 | 71 | 314 | 8.0 | 8.0 | 0.00 | 0.00 | 0.00 | 79 | 1016.7 |
| 20260507044422 | 72 | 302 | 5.0 | 8.0 | 0.00 | 0.00 | 0.00 | 80 | 1016.5 |
| 20260507043918 | 72 | 308 | 5.0 | 7.0 | 0.00 | 0.00 | 0.00 | 79 | 1016.6 |
| 20260507043414 | 72 | 290 | 7.0 | 11.0 | 0.00 | 0.00 | 0.00 | 79 | 1016.5 |
| 20260507042910 | 72 | 331 | 4.0 | 8.0 | 0.00 | 0.00 | 0.00 | 79 | 1016.3 |
| 20260507042407 | 72 | 322 | 3.0 | 8.0 | 0.00 | 0.00 | 0.00 | 79 | 1016.3 |
| 20260507041903 | 72 | 324 | 3.0 | 6.0 | 0.00 | 0.00 | 0.00 | 79 | 1016.4 |
| 20260507041400 | 72 | 296 | 3.0 | 9.0 | 0.00 | 0.00 | 0.00 | 79 | 1016.3 |
| 20260507040857 | 72 | 305 | 3.0 | 8.0 | 0.00 | 0.00 | 0.00 | 80 | 1016.2 |
| 20260507040353 | 72 | 297 | 4.0 | 7.0 | 0.00 | 0.00 | 0.00 | 80 | 1016.3 |
| 20260507035849 | 72 | 31 | 2.0 | 6.0 | 0.00 | 0.00 | 0.00 | 80 | 1016.1 |
| 20260507035345 | 72 | 297 | 3.0 | 9.0 | 0.00 | 0.00 | 0.00 | 80 | 1016.2 |
| 20260507034842 | 72 | 292 | 2.0 | 9.0 | 0.00 | 0.00 | 0.00 | 80 | 1016.1 |
| 20260507034339 | 72 | 323 | 3.0 | 9.0 | 0.00 | 0.00 | 0.00 | 80 | 1016.0 |
| 20260507033837 | 73 | 289 | 5.0 | 9.0 | 0.00 | 0.00 | 0.00 | 79 | 1016.1 |
| 20260507033335 | 72 | 285 | 5.0 | 7.0 | 0.00 | 0.00 | 0.00 | 79 | 1016.0 |
| 20260507032832 | 73 | 317 | 5.0 | 8.0 | 0.00 | 0.00 | 0.00 | 79 | 1016.0 |
| 20260507032328 | 73 | 305 | 4.0 | 6.0 | 0.00 | 0.00 | 0.00 | 78 | 1015.7 |
| 20260507031824 | 73 | 38 | 3.0 | 5.0 | 0.00 | 0.00 | 0.00 | 77 | 1015.8 |
| 20260507031321 | 73 | 307 | 3.0 | 8.0 | 0.00 | 0.00 | 0.00 | 78 | 1015.8 |
| 20260507030817 | 73 | 313 | 5.0 | 11.0 | 0.00 | 0.00 | 0.00 | 78 | 1015.7 |
| 20260507030316 | 73 | 304 | 3.0 | 14.0 | 0.00 | 0.00 | 0.00 | 78 | 1015.6 |
| 20260507025812 | 74 | 319 | 4.0 | 8.0 | 0.00 | 0.00 | 0.00 | 77 | 1015.6 |
| 20260507025309 | 74 | 346 | 4.0 | 13.0 | 0.00 | 0.00 | 0.00 | 76 | 1015.7 |
| 20260507024807 | 74 | 315 | 5.0 | 8.0 | 0.00 | 0.00 | 0.00 | 76 | 1015.5 |
| 20260507024304 | 74 | 330 | 7.0 | 11.0 | 0.00 | 0.00 | 0.00 | 77 | 1015.7 |
| 20260507023800 | 74 | 319 | 6.0 | 9.0 | 0.00 | 0.00 | 0.00 | 77 | 1015.7 |
| 20260507023257 | 74 | 352 | 3.0 | 9.0 | 0.00 | 0.00 | 0.00 | 77 | 1015.8 |
| 20260507022754 | 74 | 323 | 6.0 | 8.0 | 0.00 | 0.00 | 0.00 | 76 | 1015.5 |
| 20260507022250 | 75 | 339 | 3.0 | 6.0 | 0.00 | 0.00 | 0.00 | 76 | 1015.8 |
| 20260507021747 | 75 | 302 | 6.0 | 6.0 | 0.00 | 0.00 | 0.00 | 76 | 1015.7 |
| 20260507021242 | 75 | 348 | 3.0 | 6.0 | 0.00 | 0.00 | 0.00 | 75 | 1015.7 |
| 20260507020741 | 75 | 291 | 6.0 | 8.0 | 0.00 | 0.00 | 0.00 | 75 | 1015.9 |
| 20260507020237 | 75 | 233 | 4.0 | 6.0 | 0.00 | 0.00 | 0.00 | 74 | 1015.9 |
| 20260507015734 | 75 | 325 | 2.0 | 7.0 | 0.00 | 0.00 | 0.00 | 75 | 1015.8 |
| 20260507015232 | 76 | 324 | 4.0 | 11.0 | 0.00 | 0.00 | 0.00 | 73 | 1016.0 |
| 20260507014728 | 77 | 8 | 3.0 | 4.0 | 0.00 | 0.00 | 0.00 | 72 | 1015.9 |
| 20260507014225 | 77 | 318 | 2.0 | 6.0 | 0.00 | 0.00 | 0.00 | 71 | 1015.9 |
| 20260507013721 | 79 | 322 | 4.0 | 5.0 | 0.00 | 0.00 | 0.00 | 69 | 1015.9 |
| 20260507013219 | 79 | 339 | 5.0 | 10.0 | 0.00 | 0.00 | 0.00 | 68 | 1015.6 |
| 20260507012716 | 78 | 77 | 4.0 | 7.0 | 0.00 | 0.00 | 0.00 | 70 | 1015.8 |
| 20260507012216 | 79 | 328 | 4.0 | 8.0 | 0.00 | 0.00 | 0.00 | 70 | 1015.6 |
| 20260507011714 | 80 | 319 | 5.0 | 6.0 | 0.00 | 0.00 | 0.00 | 68 | 1015.8 |
| 20260507011211 | 81 | 313 | 2.0 | 5.0 | 0.00 | 0.00 | 0.00 | 66 | 1015.7 |
| 20260507010710 | 80 | 289 | 2.0 | 4.0 | 0.00 | 0.00 | 0.00 | 69 | 1015.8 |
| 20260507010207 | 80 | 24 | 2.0 | 9.0 | 0.00 | 0.00 | 0.00 | 68 | 1015.9 |
| 20260507005705 | 79 | 329 | 5.0 | 5.0 | 0.00 | 0.00 | 0.00 | 69 | 1015.9 |
| 20260507005200 | 78 | 313 | 5.0 | 6.0 | 0.00 | 0.00 | 0.00 | 71 | 1016.1 |
| 20260507004657 | 77 | 284 | 3.0 | 7.0 | 0.00 | 0.00 | 0.00 | 71 | 1016.1 |
| 20260507004155 | 78 | 324 | 4.0 | 13.0 | 0.00 | 0.00 | 0.00 | 70 | 1016.2 |
| 20260507003651 | 78 | 310 | 2.0 | 5.0 | 0.00 | 0.00 | 0.00 | 72 | 1016.2 |
| 20260507003151 | 77 | 341 | 3.0 | 8.0 | 0.00 | 0.00 | 0.00 | 72 | 1016.3 |
| 20260507002648 | 77 | 305 | 4.0 | 5.0 | 0.00 | 0.00 | 0.00 | 71 | 1016.4 |
| 20260507002143 | 78 | 305 | 5.0 | 7.0 | 0.00 | 0.00 | 0.00 | 71 | 1016.3 |
| 20260507001641 | 77 | 330 | 3.0 | 5.0 | 0.00 | 0.00 | 0.00 | 73 | 1016.5 |
| 20260507001138 | 77 | 317 | 7.0 | 8.0 | 0.00 | 0.00 | 0.00 | 72 | 1016.4 |
| 20260507000634 | 77 | 327 | 4.0 | 5.0 | 0.00 | 0.00 | 0.00 | 72 | 1016.4 |
| 20260507000130 | 77 | 322 | 2.0 | 11.0 | 0.00 | 0.00 | 0.00 | 72 | 1016.6 |
| 20260506235627 | 77 | 306 | 3.0 | 10.0 | 0.00 | 0.00 | 0.00 | 72 | 1016.6 |
| 20260506235127 | 78 | 320 | 5.0 | 7.0 | 0.00 | 0.00 | 0.00 | 71 | 1016.7 |
| 20260506234625 | 78 | 3 | 2.0 | 6.0 | 0.00 | 0.00 | 0.00 | 69 | 1016.8 |
| 20260506234122 | 78 | 318 | 3.0 | 5.0 | 0.00 | 0.00 | 0.00 | 70 | 1016.6 |
| 20260506233619 | 79 | 309 | 7.0 | 9.0 | 0.00 | 0.00 | 0.00 | 69 | 1016.7 |
| 20260506233116 | 79 | 311 | 6.0 | 7.0 | 0.00 | 0.00 | 0.00 | 68 | 1016.9 |
| 20260506232612 | 79 | 320 | 2.0 | 5.0 | 0.00 | 0.00 | 0.00 | 68 | 1016.9 |
| 20260506232107 | 80 | 313 | 3.0 | 6.0 | 0.00 | 0.00 | 0.00 | 67 | 1016.9 |
| 20260506231605 | 79 | 317 | 3.0 | 12.0 | 0.00 | 0.00 | 0.00 | 68 | 1016.9 |
| 20260506231103 | 80 | 301 | 8.0 | 9.0 | 0.00 | 0.00 | 0.00 | 67 | 1016.8 |
| 20260506230559 | 80 | 355 | 1.0 | 7.0 | 0.00 | 0.00 | 0.00 | 67 | 1016.8 |
| 20260506230057 | 82 | 306 | 11.0 | 11.0 | 0.00 | 0.00 | 0.00 | 64 | 1016.6 |
| 20260506225553 | 82 | 317 | 5.0 | 7.0 | 0.00 | 0.00 | 0.00 | 65 | 1016.9 |
| 20260506225050 | 83 | 299 | 7.0 | 11.0 | 0.00 | 0.00 | 0.00 | 63 | 1016.9 |
| 20260506224547 | 82 | 94 | 2.0 | 5.0 | 0.00 | 0.00 | 0.00 | 63 | 1016.9 |
| 20260506224043 | 81 | 19 | 1.0 | 6.0 | 0.00 | 0.00 | 0.00 | 65 | 1016.8 |
| 20260506223539 | 82 | 244 | 3.0 | 5.0 | 0.00 | 0.00 | 0.00 | 63 | 1017.0 |
| 20260506223036 | 82 | 320 | 2.0 | 6.0 | 0.00 | 0.00 | 0.00 | 63 | 1017.0 |
| 20260506222533 | 82 | 292 | 3.0 | 4.0 | 0.00 | 0.00 | 0.00 | 66 | 1017.1 |
| 20260506222029 | 84 | 69 | 1.0 | 6.0 | 0.00 | 0.00 | 0.00 | 62 | 1017.0 |
| 20260506221527 | 83 | 308 | 2.0 | 5.0 | 0.00 | 0.00 | 0.00 | 63 | 1017.1 |
| 20260506221025 | 82 | 298 | 3.0 | 5.0 | 0.00 | 0.00 | 0.00 | 63 | 1017.3 |
| 20260506220520 | 83 | 322 | 2.0 | 7.0 | 0.00 | 0.00 | 0.00 | 64 | 1017.2 |
| 20260506220016 | 84 | 300 | 4.0 | 5.0 | 0.00 | 0.00 | 0.00 | 60 | 1017.3 |
| 20260506215513 | 83 | 347 | 2.0 | 4.0 | 0.00 | 0.00 | 0.00 | 61 | 1017.0 |
| 20260506215009 | 83 | 296 | 2.0 | 5.0 | 0.00 | 0.00 | 0.00 | 62 | 1017.4 |
| 20260506214506 | 83 | 268 | 1.0 | 6.0 | 0.00 | 0.00 | 0.00 | 64 | 1017.3 |
| 20260506214003 | 82 | 15 | 2.0 | 6.0 | 0.00 | 0.00 | 0.00 | 64 | 1017.3 |
| 20260506213501 | 82 | 310 | 1.0 | 4.0 | 0.00 | 0.00 | 0.00 | 63 | 1017.5 |
| 20260506212958 | 82 | 318 | 3.0 | 3.0 | 0.00 | 0.00 | 0.00 | 65 | 1017.5 |
| 20260506212454 | 81 | 321 | 4.0 | 5.0 | 0.00 | 0.00 | 0.00 | 65 | 1017.7 |
| 20260506211949 | 81 | 318 | 2.0 | 4.0 | 0.00 | 0.00 | 0.00 | 66 | 1017.4 |
| 20260506211445 | 81 | 30 | 0.0 | 3.0 | 0.00 | 0.00 | 0.00 | 63 | 1017.4 |
| 20260506210942 | 80 | 3 | 2.0 | 3.0 | 0.00 | 0.00 | 0.00 | 65 | 1017.5 |
| 20260506210438 | 80 | 80 | 3.0 | 6.0 | 0.00 | 0.00 | 0.00 | 66 | 1017.7 |
| 20260506205936 | 78 | 9 | 2.0 | 3.0 | 0.00 | 0.00 | 0.00 | 67 | 1017.9 |
| 20260506205432 | 79 | 92 | 4.0 | 6.0 | 0.00 | 0.00 | 0.00 | 66 | 1017.7 |
| 20260506204928 | 79 | 87 | 2.0 | 5.0 | 0.00 | 0.00 | 0.00 | 66 | 1017.8 |
| 20260506204426 | 80 | 71 | 2.0 | 4.0 | 0.00 | 0.00 | 0.00 | 65 | 1017.7 |
| 20260506203923 | 81 | 323 | 4.0 | 4.0 | 0.00 | 0.00 | 0.00 | 64 | 1017.8 |
| 20260506203420 | 81 | 29 | 2.0 | 4.0 | 0.00 | 0.00 | 0.00 | 65 | 1017.7 |
| 20260506202917 | 81 | 300 | 3.0 | 3.0 | 0.00 | 0.00 | 0.00 | 64 | 1017.5 |
| 20260506202414 | 82 | 94 | 2.0 | 4.0 | 0.00 | 0.00 | 0.00 | 61 | 1017.8 |
| 20260506201911 | 83 | 330 | 1.0 | 3.0 | 0.00 | 0.00 | 0.00 | 61 | 1017.8 |
| 20260506201409 | 83 | 37 | 1.0 | 3.0 | 0.00 | 0.00 | 0.00 | 61 | 1017.8 |
| 20260506200905 | 82 | 77 | 2.0 | 4.0 | 0.00 | 0.00 | 0.00 | 61 | 1017.7 |
| 20260506200401 | 81 | 316 | 3.0 | 9.0 | 0.00 | 0.00 | 0.00 | 63 | 1017.4 |
| 20260506195857 | 80 | 323 | 1.0 | 4.0 | 0.00 | 0.00 | 0.00 | 65 | 1017.4 |
| 20260506195355 | 80 | 299 | 4.0 | 6.0 | 0.00 | 0.00 | 0.00 | 66 | 1017.5 |
| 20260506194851 | 80 | 332 | 1.0 | 3.0 | 0.00 | 0.00 | 0.00 | 65 | 1017.8 |
| 20260506194348 | 79 | 142 | 3.0 | 4.0 | 0.00 | 0.00 | 0.00 | 67 | 1017.5 |
| 20260506193846 | 79 | 305 | 3.0 | 6.0 | 0.00 | 0.00 | 0.00 | 67 | 1017.3 |
| 20260506193342 | 80 | 68 | 1.0 | 4.0 | 0.00 | 0.00 | 0.00 | 66 | 1017.2 |
| 20260506192839 | 79 | 38 | 2.0 | 5.0 | 0.00 | 0.00 | 0.00 | 66 | 1017.1 |
| 20260506192335 | 79 | 64 | 1.0 | 8.0 | 0.00 | 0.00 | 0.00 | 65 | 1017.2 |
| 20260506191833 | 79 | 277 | 3.0 | 5.0 | 0.00 | 0.00 | 0.00 | 65 | 1017.3 |
| 20260506191329 | 80 | 331 | 3.0 | 12.0 | 0.00 | 0.00 | 0.00 | 64 | 1017.1 |
| 20260506190826 | 79 | 288 | 2.0 | 4.0 | 0.00 | 0.00 | 0.00 | 66 | 1017.1 |
| 20260506190322 | 79 | 297 | 2.0 | 6.0 | 0.00 | 0.00 | 0.00 | 66 | 1017.0 |
| 20260506185819 | 79 | 301 | 4.0 | 9.0 | 0.00 | 0.00 | 0.00 | 67 | 1017.0 |
| 20260506185316 | 78 | 339 | 0.0 | 7.0 | 0.00 | 0.00 | 0.00 | 67 | 1017.0 |
| 20260506184813 | 78 | 355 | 2.0 | 8.0 | 0.00 | 0.00 | 0.00 | 67 | 1017.0 |
| 20260506184311 | 79 | 339 | 4.0 | 7.0 | 0.00 | 0.00 | 0.00 | 65 | 1016.7 |
| 20260506183808 | 79 | 19 | 1.0 | 4.0 | 0.00 | 0.00 | 0.00 | 64 | 1017.0 |
| 20260506183303 | 78 | 329 | 4.0 | 4.0 | 0.00 | 0.00 | 0.00 | 65 | 1016.9 |
| 20260506182800 | 77 | 353 | 2.0 | 4.0 | 0.00 | 0.00 | 0.00 | 66 | 1017.1 |
| 20260506182257 | 77 | 281 | 2.0 | 3.0 | 0.00 | 0.00 | 0.00 | 65 | 1016.9 |
| 20260506181755 | 77 | 311 | 3.0 | 4.0 | 0.00 | 0.00 | 0.00 | 62 | 1017.0 |
| 20260506181253 | 77 | 8 | 0.0 | 4.0 | 0.00 | 0.00 | 0.00 | 60 | 1016.9 |
| 20260506180749 | 77 | 300 | 2.0 | 4.0 | 0.00 | 0.00 | 0.00 | 63 | 1016.9 |
| 20260506180245 | 75 | 42 | 1.0 | 2.0 | 0.00 | 0.00 | 0.00 | 66 | 1016.8 |
| 20260506175742 | 75 | 275 | 2.0 | 2.0 | 0.00 | 0.00 | 0.00 | 65 | 1016.9 |
| 20260506175239 | 76 | 297 | 2.0 | 2.0 | 0.00 | 0.00 | 0.00 | 66 | 1017.0 |
| 20260506174737 | 76 | 52 | 2.0 | 3.0 | 0.00 | 0.00 | 0.00 | 66 | 1016.8 |
| 20260506174233 | 75 | 72 | 2.0 | 3.0 | 0.00 | 0.00 | 0.00 | 64 | 1016.8 |
| 20260506173731 | 75 | 337 | 1.0 | 2.0 | 0.00 | 0.00 | 0.00 | 65 | 1016.8 |
| 20260506173227 | 74 | 7 | 1.0 | 3.0 | 0.00 | 0.00 | 0.00 | 66 | 1016.8 |
| 20260506172724 | 74 | 332 | 2.0 | 3.0 | 0.00 | 0.00 | 0.00 | 66 | 1016.9 |
| 20260506172221 | 74 | 340 | 2.0 | 3.0 | 0.00 | 0.00 | 0.00 | 66 | 1016.6 |
| 20260506171718 | 74 | 358 | 1.0 | 3.0 | 0.00 | 0.00 | 0.00 | 66 | 1016.6 |
| 20260506171216 | 73 | 346 | 2.0 | 2.0 | 0.00 | 0.00 | 0.00 | 68 | 1016.4 |
| 20260506170713 | 73 | 12 | 1.0 | 3.0 | 0.00 | 0.00 | 0.00 | 68 | 1016.6 |
| 20260506170210 | 73 | 6 | 1.0 | 2.0 | 0.00 | 0.00 | 0.00 | 69 | 1016.5 |
| 20260506165708 | 73 | 34 | 2.0 | 4.0 | 0.00 | 0.00 | 0.00 | 68 | 1016.3 |
| 20260506165204 | 73 | 42 | 3.0 | 4.0 | 0.00 | 0.00 | 0.00 | 70 | 1016.3 |
| 20260506164702 | 73 | 49 | 3.0 | 4.0 | 0.00 | 0.00 | 0.00 | 70 | 1016.3 |
| 20260506164159 | 73 | 53 | 4.0 | 4.0 | 0.00 | 0.00 | 0.00 | 70 | 1016.3 |
| 20260506163655 | 73 | 48 | 3.0 | 4.0 | 0.00 | 0.00 | 0.00 | 69 | 1016.2 |
| 20260506163151 | 73 | 69 | 3.0 | 4.0 | 0.00 | 0.00 | 0.00 | 66 | 1016.2 |
| 20260506162647 | 73 | 52 | 3.0 | 3.0 | 0.00 | 0.00 | 0.00 | 66 | 1016.1 |
| 20260506162144 | 73 | 54 | 3.0 | 4.0 | 0.00 | 0.00 | 0.00 | 67 | 1015.9 |
| 20260506161641 | 73 | 59 | 3.0 | 4.0 | 0.00 | 0.00 | 0.00 | 66 | 1015.8 |
| 20260506161138 | 72 | 58 | 3.0 | 4.0 | 0.00 | 0.00 | 0.00 | 65 | 1016.0 |
| 20260506160636 | 72 | 35 | 2.0 | 3.0 | 0.00 | 0.00 | 0.00 | 66 | 1015.8 |
| 20260506160132 | 72 | 40 | 2.0 | 4.0 | 0.00 | 0.00 | 0.00 | 68 | 1015.9 |
| 20260506155631 | 72 | 31 | 1.0 | 2.0 | 0.00 | 0.00 | 0.00 | 68 | 1015.8 |
| 20260506155127 | 72 | 75 | 2.0 | 3.0 | 0.00 | 0.00 | 0.00 | 66 | 1015.5 |
| 20260506153224 | 72 | 26 | 1.0 | 3.0 | 0.00 | 0.00 | 0.00 | 64 | 1015.5 |
| 20260506152721 | 72 | 53 | 2.0 | 3.0 | 0.00 | 0.00 | 0.00 | 63 | 1015.7 |
| 20260506152218 | 72 | 60 | 3.0 | 3.0 | 0.00 | 0.00 | 0.00 | 64 | 1015.5 |
| 20260506151718 | 71 | 2 | 2.0 | 3.0 | 0.00 | 0.00 | 0.00 | 66 | 1015.4 |
| 20260506151214 | 71 | 36 | 2.0 | 2.0 | 0.00 | 0.00 | 0.00 | 71 | 1015.4 |
| 20260506150710 | 70 | 15 | 1.0 | 2.0 | 0.00 | 0.00 | 0.00 | 74 | 1015.2 |
| 20260506150207 | 70 | 18 | 1.0 | 2.0 | 0.00 | 0.00 | 0.00 | 75 | 1015.1 |
| 20260506145704 | 69 | 8 | 1.0 | 2.0 | 0.00 | 0.00 | 0.00 | 77 | 1015.4 |
| 20260506145201 | 69 | 355 | 1.0 | 2.0 | 0.00 | 0.00 | 0.00 | 78 | 1015.2 |
| 20260506144658 | 69 | 15 | 1.0 | 2.0 | 0.00 | 0.00 | 0.00 | 78 | 1015.1 |
| 20260506144155 | 69 | 19 | 2.0 | 2.0 | 0.00 | 0.00 | 0.00 | 78 | 1015.2 |
| 20260506143653 | 70 | 37 | 1.0 | 3.0 | 0.00 | 0.00 | 0.00 | 79 | 1015.1 |
| 20260506143150 | 70 | 51 | 2.0 | 3.0 | 0.00 | 0.00 | 0.00 | 78 | 1015.3 |
| 20260506142649 | 69 | 56 | 3.0 | 3.0 | 0.00 | 0.00 | 0.00 | 78 | 1015.3 |
| 20260506142146 | 69 | 44 | 2.0 | 2.0 | 0.00 | 0.00 | 0.00 | 79 | 1015.2 |
| 20260506141644 | 69 | 12 | 1.0 | 2.0 | 0.00 | 0.00 | 0.00 | 79 | 1015.3 |
| 20260506141142 | 69 | 23 | 2.0 | 2.0 | 0.00 | 0.00 | 0.00 | 79 | 1015.3 |
| 20260506140639 | 69 | 42 | 2.0 | 3.0 | 0.00 | 0.00 | 0.00 | 79 | 1015.2 |
| 20260506140136 | 69 | 33 | 2.0 | 2.0 | 0.00 | 0.00 | 0.00 | 79 | 1015.4 |
| 20260506135633 | 69 | 46 | 2.0 | 2.0 | 0.00 | 0.00 | 0.00 | 78 | 1015.2 |
| 20260506135129 | 70 | 28 | 2.0 | 2.0 | 0.00 | 0.00 | 0.00 | 77 | 1015.1 |
| 20260506134626 | 70 | 52 | 2.0 | 3.0 | 0.00 | 0.00 | 0.00 | 77 | 1015.2 |